North Myrtle Beach, SC

5:41 AM EDT on August 26, 2016 (GMT -0400)
Grand Strand

Weather History for KCRE - February, 2012

Change the Weather History Date:

Wednesday, February 22, 2012

  Actual Average Record
Temperature  
Mean Temperature 59 °F 49 °F  
Max Temperature 66 °F 59 °F 75 °F (2007)
Min Temperature 52 °F 40 °F 25 °F (1999)
Degree Days  
Heating Degree Days 6 16  
Month to date heating degree days 320 387  
Since 1 July heating degree days 1518 1855  
Cooling Degree Days 0 0  
Month to date cooling degree days 0 0  
Year to date cooling degree days 0 0  
Growing Degree Days 9 (Base 50)    
Moisture  
Dew Point 52 °F    
Average Humidity 74    
Maximum Humidity 89    
Minimum Humidity 58    
Precipitation  
Precipitation 0.00 in 0.13 in 0.61 in (2008)
Month to date precipitation 1.82 2.68  
Year to date precipitation 3.06 6.37  
Sea Level Pressure  
Sea Level Pressure 29.90 in    
Wind  
Wind Speed 12 mph (SW)    
Max Wind Speed 24 mph    
Max Gust Speed 30 mph    
Visibility 10 miles    
Events      
T = Trace of Precipitation, MM = Missing Value Source: NWS Daily Summary

Daily Weather History Graph

Daily Weather History Graph

Search for Another Location

Airport or City:

Trip Planner

Search our weather history database for the weather conditions in past years. The results will help you decide how hot, cold, wet, or windy it might be!

Date:

Astronomy

Feb. 22, 2012 Rise Set
Actual Time 6:52 AM EST 6:04 PM EST
Civil Twilight 6:27 AM EST 6:30 PM EST
Nautical Twilight 5:58 AM EST 6:59 PM EST
Astronomical Twilight 5:29 AM EST 7:28 PM EST
Moon 6:54 AM EST (2/22) 7:03 PM EST (2/22)
Length of Visible Light 12h 03m
Length of Day
11h 12m
New Moon, 1% of the Moon is Illuminated
Feb 22
New Moon
Feb 29
First Quarter
Mar 8
Full
Mar 14
Last Quarter
Mar 22
New

Hourly Weather History & Observations

Time (EST) Temp. Dew Point Humidity Pressure Visibility Wind Dir Wind Speed Gust Speed Precip Events Conditions
12:53 AM 55.9 °F 51.1 °F 84% 30.07 in 10.0 mi WSW 8.1 mph - N/A   Clear
1:53 AM 55.0 °F 50.0 °F 83% 30.06 in 10.0 mi WSW 8.1 mph - N/A   Clear
2:53 AM 55.9 °F 50.0 °F 80% 30.04 in 10.0 mi West 8.1 mph - N/A   Clear
3:53 AM 54.0 °F 48.9 °F 83% 30.02 in 10.0 mi WSW 5.8 mph - N/A   Clear
4:53 AM 54.0 °F 48.9 °F 83% 30.01 in 10.0 mi West 5.8 mph - N/A   Clear
5:53 AM 53.1 °F 48.0 °F 83% 30.01 in 10.0 mi West 4.6 mph - N/A   Clear
6:53 AM 52.0 °F 48.0 °F 86% 30.02 in 10.0 mi WSW 5.8 mph - N/A   Clear
7:53 AM 53.1 °F 48.9 °F 86% 30.02 in 10.0 mi WSW 4.6 mph - N/A   Clear
8:53 AM 57.0 °F 51.1 °F 81% 30.02 in 10.0 mi SSW 6.9 mph - N/A   Clear
9:53 AM 63.0 °F 52.0 °F 67% 30.02 in 10.0 mi SW 8.1 mph - N/A   Clear
11:53 AM 64.0 °F 52.0 °F 65% 29.95 in 10.0 mi SSW 11.5 mph - N/A   Clear
12:53 PM 66.0 °F 52.0 °F 60% 29.91 in 10.0 mi SSW 12.7 mph - N/A   Clear
1:53 PM 64.9 °F 52.0 °F 63% 29.88 in 10.0 mi SSW 13.8 mph - N/A   Clear
2:53 PM 64.0 °F 51.1 °F 63% 29.84 in 10.0 mi SSW 18.4 mph 24.2 mph N/A   Clear
3:53 PM 62.1 °F 52.0 °F 70% 29.82 in 10.0 mi SSW 17.3 mph 25.3 mph N/A   Clear
4:53 PM 60.1 °F 52.0 °F 75% 29.79 in 10.0 mi SSW 17.3 mph - N/A   Clear
5:53 PM 59.0 °F 53.1 °F 81% 29.78 in 10.0 mi SSW 17.3 mph 27.6 mph N/A   Clear
6:53 PM 57.9 °F 54.0 °F 87% 29.77 in 10.0 mi SSW 17.3 mph 25.3 mph N/A   Clear
7:53 PM 57.0 °F 54.0 °F 89% 29.77 in 10.0 mi SW 17.3 mph - N/A   Clear
8:53 PM 57.9 °F 54.0 °F 87% 29.75 in 10.0 mi SW 16.1 mph - N/A   Clear
9:53 PM 57.9 °F 54.0 °F 87% 29.73 in 10.0 mi SW 18.4 mph - N/A   Partly Cloudy
10:53 PM 59.0 °F 55.0 °F 87% 29.71 in 10.0 mi SW 17.3 mph - N/A   Mostly Cloudy
11:53 PM 59.0 °F 55.9 °F 90% 29.70 in 10.0 mi SW 16.1 mph - N/A   Clear